{"data":{"norad_id":43152,"intl_designator":"2018-007A","name":"ASNARO-2","alt_names":[],"object_type":"PAYLOAD","status":"ACTIVE","operator":null,"country":"JPN","launch_date":"2018-01-17","launch_site_code":"KSCUT","launch_vehicle":null,"mission":null,"orbit_class":"UNKNOWN","rcs_meters":null,"size_class":null,"mass_kg":null,"dimensions":null,"purposes":[],"wikipedia_slug":null,"has_3d_model":false,"image_url":null,"decayed_at":null,"tle_current":{"epoch":"2026-09-20T05:28:19.123104Z","epoch_age_seconds":74609,"freshness":"FRESH","line1":"1 43152U 18007A   26263.22799911  .00004994  00000+0  21915-3 0  9996","line2":"2 43152  97.4007 268.6813 0001936  83.6209 276.5248 15.22401612481871","mean_motion":15.22401612,"eccentricity":0.0001936,"inclination_deg":97.4007,"raan_deg":268.6813,"arg_perigee_deg":83.6209,"mean_anomaly_deg":276.5248,"bstar":0.00021915,"rev_number":48187,"period_min":94.587393277143,"perigee_km":497.2676523547,"apogee_km":499.93032452943,"semimajor_km":6876.7359884421,"source":"CELESTRAK","updated_at":"2026-09-20T09:00:14.303089Z"}}}